START_TIME,STEP,MOV.,M15,t_acc.,M20,t_acc.
1979-07-24 00:00:43.420 ,0,0,0.,24.0,0.,24.0
1979-07-24 00:01:07.420 ,1,1,0.,24.0,0.,24.0
1979-07-24 00:01:31.420 ,1,0,0.,24.0,0.,24.0
1979-07-24 00:01:55.420 ,2,1,0.,24.0,0.,24.0
1979-07-24 00:02:19.420 ,2,0,1.,24.0,0.,24.0
1979-07-24 00:02:43.420 ,3,1,0.,24.0,0.,24.0
1979-07-24 00:03:07.420 ,3,0,0.,24.0,0.,24.0
1979-07-24 00:03:31.420 ,4,1,0.,24.0,0.,24.0
1979-07-24 00:03:55.420 ,4,0,0.,24.0,0.,24.0
1979-07-24 00:04:19.420 ,5,1,0.,24.0,0.,24.0
1979-07-24 00:04:43.420 ,5,0,0.,24.0,0.,24.0
1979-07-24 00:05:07.420 ,6,1,0.,24.0,0.,24.0
1979-07-24 00:05:31.420 ,6,0,0.,24.0,0.,24.0
1979-07-24 00:05:55.420 ,7,1,0.,24.0,0.,24.0
1979-07-24 00:06:19.420 ,7,0,0.,24.0,0.,24.0
1979-07-24 00:06:43.420 ,7,1,0.,24.0,0.,24.0
1979-07-24 00:07:07.420 ,7,0,0.,24.0,0.,24.0
1979-07-24 00:07:31.420 ,6,1,0.,24.0,0.,24.0
1979-07-24 00:07:55.420 ,6,0,0.,24.0,0.,24.0
1979-07-24 00:08:19.420 ,5,1,0.,24.0,0.,24.0
1979-07-24 00:08:43.420 ,5,0,0.,24.0,0.,24.0
1979-07-24 00:09:07.420 ,4,1,0.,24.0,0.,24.0
1979-07-24 00:09:31.420 ,4,0,0.,24.0,0.,24.0
1979-07-24 00:09:55.420 ,3,1,1.,24.0,0.,24.0
1979-07-24 00:10:19.420 ,3,0,0.,24.0,0.,24.0
1979-07-24 00:10:43.420 ,2,1,0.,24.0,0.,24.0
1979-07-24 00:11:07.420 ,2,0,0.,24.0,0.,24.0
1979-07-24 00:11:31.420 ,1,1,0.,24.0,0.,24.0
1979-07-24 00:11:55.420 ,1,0,0.,24.0,0.,24.0
1979-07-24 00:12:19.420 ,0,1,0.,24.0,0.,24.0
1979-07-24 00:12:43.420 ,0,0,0.,24.0,0.,24.0
1979-07-24 00:13:07.420 ,0,1,0.,24.0,0.,24.0
1979-07-24 00:13:31.420 ,0,0,0.,24.0,0.,24.0
1979-07-24 00:13:55.420 ,1,1,0.,24.0,0.,24.0
1979-07-24 00:14:19.420 ,1,0,0.,24.0,0.,24.0
1979-07-24 00:14:43.420 ,2,1,0.,24.0,0.,24.0
1979-07-24 00:15:07.420 ,2,0,0.,24.0,0.,24.0
1979-07-24 00:15:31.420 ,3,1,0.,24.0,0.,24.0
1979-07-24 00:15:55.420 ,3,0,0.,24.0,0.,24.0
1979-07-24 00:16:19.420 ,4,1,0.,24.0,0.,24.0
1979-07-24 00:16:43.420 ,4,0,0.,24.0,0.,24.0
1979-07-24 00:17:07.420 ,5,1,0.,24.0,0.,24.0
1979-07-24 00:17:31.420 ,5,0,0.,24.0,0.,24.0
1979-07-24 00:17:55.420 ,6,1,0.,24.0,0.,24.0
1979-07-24 00:18:19.420 ,6,0,0.,24.0,0.,24.0
1979-07-24 00:18:43.420 ,7,0,0.,24.0,0.,24.0
1979-07-24 00:19:07.420 ,7,0,0.,24.0,0.,24.0
1979-07-24 00:19:31.420 ,3,1,0.,24.0,0.,24.0
1979-07-24 00:19:55.420 ,0,1,0.,24.0,0.,24.0
1979-07-24 00:20:19.420 ,4,1,0.,24.0,0.,24.0
1979-07-24 00:20:43.420 ,7,1,0.,24.0,0.,24.0
1979-07-24 00:21:07.420 ,3,1,0.,24.0,0.,24.0
1979-07-24 00:21:31.420 ,0,1,0.,24.0,0.,24.0
1979-07-24 00:21:55.420 ,4,1,0.,24.0,0.,24.0
1979-07-24 00:22:19.420 ,7,1,0.,24.0,0.,24.0
1979-07-24 00:22:43.420 ,3,1,0.,24.0,0.,24.0
1979-07-24 00:23:07.420 ,0,1,0.,24.0,0.,24.0
1979-07-24 00:23:31.420 ,4,1,0.,24.0,0.,24.0
1979-07-24 00:23:55.420 ,7,1,0.,24.0,0.,24.0
1979-07-24 00:24:19.420 ,3,1,0.,24.0,0.,24.0
1979-07-24 00:24:43.420 ,0,1,0.,24.0,0.,24.0
1979-07-24 00:25:07.420 ,4,1,0.,24.0,0.,24.0
1979-07-24 00:25:31.420 ,7,1,0.,24.0,0.,24.0
1979-07-24 00:25:55.420 ,3,1,0.,24.0,0.,24.0
1979-07-24 00:26:19.420 ,0,1,0.,24.0,0.,24.0
1979-07-24 00:26:43.420 ,4,1,0.,24.0,0.,24.0
1979-07-24 00:27:07.420 ,7,1,0.,24.0,0.,24.0
1979-07-24 00:27:31.420 ,3,1,0.,24.0,0.,24.0
1979-07-24 00:27:55.420 ,0,1,0.,24.0,0.,24.0
1979-07-24 00:28:19.420 ,4,1,0.,24.0,0.,24.0
1979-07-24 00:28:43.420 ,7,1,0.,24.0,0.,24.0
1979-07-24 00:29:07.420 ,3,1,0.,24.0,0.,24.0
1979-07-24 00:29:31.420 ,0,1,0.,24.0,0.,24.0
1979-07-24 00:29:55.420 ,0,0,0.,24.0,0.,24.0
1979-07-24 00:30:19.420 ,0,0,0.,24.0,0.,24.0
1979-07-24 00:30:43.420 ,5,1,0.,24.0,0.,24.0
1979-07-24 00:31:07.420 ,5,0,1.,24.0,0.,24.0
1979-07-24 00:31:31.420 ,4,1,0.,24.0,0.,24.0
1979-07-24 00:31:55.420 ,4,0,0.,24.0,0.,24.0
1979-07-24 00:32:19.420 ,3,1,0.,24.0,0.,24.0
1979-07-24 00:32:43.420 ,3,0,0.,24.0,0.,24.0
1979-07-24 00:33:07.420 ,2,1,0.,24.0,0.,24.0
1979-07-24 00:33:31.420 ,2,0,0.,24.0,0.,24.0
1979-07-24 00:33:55.420 ,1,1,0.,24.0,0.,24.0
1979-07-24 00:34:19.420 ,1,0,0.,24.0,0.,24.0
1979-07-24 00:34:43.410 ,0,1,0.,24.0,0.,24.0
1979-07-24 00:35:07.410 ,0,0,0.,24.0,0.,24.0
1979-07-24 00:35:31.410 ,0,1,0.,24.0,0.,24.0
1979-07-24 00:35:55.410 ,0,0,0.,24.0,0.,24.0
1979-07-24 00:36:19.410 ,1,1,0.,24.0,0.,24.0
1979-07-24 00:36:43.410 ,1,0,0.,24.0,0.,24.0
1979-07-24 00:37:07.410 ,2,1,0.,24.0,0.,24.0
1979-07-24 00:37:31.410 ,2,0,0.,24.0,0.,24.0
1979-07-24 00:37:55.410 ,3,1,0.,24.0,0.,24.0
1979-07-24 00:38:19.410 ,3,0,0.,24.0,0.,24.0
1979-07-24 00:38:43.410 ,4,1,0.,24.0,0.,24.0
1979-07-24 00:39:07.410 ,4,0,0.,24.0,0.,24.0
1979-07-24 00:39:31.410 ,5,1,0.,24.0,0.,24.0
1979-07-24 00:39:55.410 ,5,0,0.,24.0,0.,24.0
1979-07-24 00:40:19.410 ,6,1,0.,24.0,0.,24.0
1979-07-24 00:40:43.410 ,6,0,0.,24.0,0.,24.0
1979-07-24 00:41:07.410 ,7,1,0.,24.0,0.,24.0
1979-07-24 00:41:31.410 ,7,0,0.,24.0,0.,24.0
1979-07-24 00:41:55.410 ,7,1,0.,24.0,0.,24.0
1979-07-24 00:42:19.410 ,7,0,0.,24.0,0.,24.0
1979-07-24 00:42:43.410 ,6,1,0.,24.0,0.,24.0
1979-07-24 00:43:07.410 ,6,0,0.,24.0,0.,24.0
1979-07-24 00:43:31.410 ,5,1,0.,24.0,0.,24.0
1979-07-24 00:43:55.410 ,5,0,0.,24.0,0.,24.0
1979-07-24 00:44:19.410 ,4,1,0.,24.0,0.,24.0
1979-07-24 00:44:43.410 ,4,0,0.,24.0,0.,24.0
1979-07-24 00:45:07.410 ,3,1,0.,24.0,0.,24.0
1979-07-24 00:45:31.410 ,3,0,0.,24.0,0.,24.0
1979-07-24 00:45:55.410 ,2,1,0.,24.0,0.,24.0
1979-07-24 00:46:19.410 ,2,0,0.,24.0,0.,24.0
1979-07-24 00:46:43.410 ,1,1,0.,24.0,0.,24.0
1979-07-24 00:47:07.410 ,1,0,0.,24.0,0.,24.0
1979-07-24 00:47:31.410 ,0,1,0.,24.0,0.,24.0
1979-07-24 00:47:55.410 ,0,0,0.,24.0,0.,24.0
1979-07-24 00:48:19.410 ,0,1,0.,24.0,0.,24.0
1979-07-24 00:48:43.410 ,0,0,0.,24.0,0.,24.0
1979-07-24 00:49:07.410 ,1,1,0.,24.0,0.,24.0
1979-07-24 00:49:31.410 ,1,0,0.,24.0,0.,24.0
1979-07-24 00:49:55.410 ,2,1,0.,24.0,0.,24.0
1979-07-24 00:50:19.410 ,2,0,0.,24.0,0.,24.0
1979-07-24 00:50:43.410 ,3,1,0.,24.0,0.,24.0
1979-07-24 00:51:07.410 ,3,0,0.,24.0,0.,24.0
1979-07-24 00:51:31.410 ,4,1,0.,24.0,0.,24.0
1979-07-24 00:51:55.410 ,4,0,0.,24.0,0.,24.0
1979-07-24 00:52:19.410 ,5,1,0.,24.0,0.,24.0
1979-07-24 00:52:43.410 ,5,0,0.,24.0,0.,24.0
1979-07-24 00:53:07.410 ,6,1,0.,24.0,0.,24.0
1979-07-24 00:53:31.410 ,6,0,0.,24.0,0.,24.0
1979-07-24 00:53:55.410 ,7,1,0.,24.0,0.,24.0
1979-07-24 00:54:19.410 ,7,0,0.,24.0,0.,24.0
1979-07-24 00:54:43.410 ,7,1,0.,24.0,0.,24.0
1979-07-24 00:55:07.410 ,7,0,0.,24.0,0.,24.0
1979-07-24 00:55:31.410 ,6,1,0.,24.0,0.,24.0
1979-07-24 00:55:55.410 ,6,0,0.,24.0,0.,24.0
1979-07-24 00:56:19.410 ,5,1,0.,24.0,0.,24.0
1979-07-24 00:56:43.410 ,5,0,0.,24.0,0.,24.0
1979-07-24 00:57:07.410 ,4,1,0.,24.0,0.,24.0
1979-07-24 00:57:31.410 ,4,0,0.,24.0,0.,24.0
1979-07-24 00:57:55.410 ,3,1,0.,24.0,0.,24.0
1979-07-24 00:58:19.410 ,3,0,0.,24.0,0.,24.0
1979-07-24 00:58:43.410 ,2,1,0.,24.0,0.,24.0
1979-07-24 00:59:07.410 ,2,0,0.,24.0,0.,24.0
1979-07-24 00:59:31.410 ,1,1,0.,24.0,0.,24.0
1979-07-24 00:59:55.410 ,1,0,0.,24.0,0.,24.0
1979-07-24 01:00:19.410 ,0,1,0.,24.0,0.,24.0
1979-07-24 01:00:43.410 ,0,0,0.,24.0,0.,24.0
1979-07-24 01:01:07.410 ,0,1,0.,24.0,0.,24.0
1979-07-24 01:01:31.410 ,0,0,0.,24.0,0.,24.0
1979-07-24 01:01:55.410 ,1,1,0.,24.0,0.,24.0
1979-07-24 01:02:19.410 ,1,0,0.,24.0,0.,24.0
1979-07-24 01:02:43.410 ,2,1,0.,24.0,0.,24.0
1979-07-24 01:03:07.410 ,2,0,0.,24.0,0.,24.0
1979-07-24 01:03:31.410 ,3,1,0.,24.0,0.,24.0
1979-07-24 01:03:55.410 ,3,0,0.,24.0,0.,24.0
1979-07-24 01:04:19.410 ,4,1,0.,24.0,0.,24.0
1979-07-24 01:04:43.410 ,4,0,0.,24.0,0.,24.0
1979-07-24 01:05:07.410 ,5,1,0.,24.0,0.,24.0
1979-07-24 01:05:31.410 ,5,0,0.,24.0,0.,24.0
1979-07-24 01:05:55.410 ,6,1,0.,24.0,0.,24.0
1979-07-24 01:06:19.410 ,6,0,0.,24.0,0.,24.0
1979-07-24 01:06:43.410 ,7,0,0.,24.0,0.,24.0
1979-07-24 01:07:07.410 ,7,0,0.,24.0,0.,24.0
1979-07-24 01:07:31.410 ,3,1,0.,24.0,0.,24.0
1979-07-24 01:07:55.410 ,0,1,0.,24.0,0.,24.0
1979-07-24 01:08:19.410 ,4,1,0.,24.0,0.,24.0
1979-07-24 01:08:43.410 ,7,1,0.,24.0,0.,24.0
1979-07-24 01:09:07.410 ,3,1,0.,24.0,0.,24.0
1979-07-24 01:09:31.410 ,0,1,0.,24.0,0.,24.0
1979-07-24 01:09:55.410 ,4,1,0.,24.0,0.,24.0
1979-07-24 01:10:19.410 ,7,1,0.,24.0,0.,24.0
1979-07-24 01:10:43.410 ,3,1,0.,24.0,0.,24.0
1979-07-24 01:11:07.410 ,0,1,0.,24.0,0.,24.0
1979-07-24 01:11:31.410 ,4,1,0.,24.0,0.,24.0
1979-07-24 01:11:55.410 ,7,1,0.,24.0,0.,24.0
1979-07-24 01:12:19.410 ,3,1,0.,24.0,0.,24.0
1979-07-24 01:12:43.410 ,0,1,0.,24.0,0.,24.0
1979-07-24 01:13:07.410 ,4,1,0.,24.0,0.,24.0
1979-07-24 01:13:31.410 ,7,1,0.,24.0,0.,24.0
1979-07-24 01:13:55.410 ,3,1,0.,24.0,0.,24.0
1979-07-24 01:14:19.410 ,0,1,0.,24.0,0.,24.0
1979-07-24 01:14:43.410 ,4,1,0.,24.0,0.,24.0
1979-07-24 01:15:07.410 ,7,1,0.,24.0,0.,24.0
1979-07-24 01:15:31.410 ,3,1,0.,24.0,0.,24.0
1979-07-24 01:15:55.410 ,0,1,0.,24.0,0.,24.0
1979-07-24 01:16:19.410 ,4,1,0.,24.0,0.,24.0
1979-07-24 01:16:43.410 ,7,1,0.,24.0,0.,24.0
1979-07-24 01:17:07.410 ,3,1,0.,24.0,0.,24.0
1979-07-24 01:17:31.410 ,0,1,0.,24.0,0.,24.0
1979-07-24 01:17:55.410 ,0,0,0.,24.0,0.,24.0
1979-07-24 01:18:19.410 ,0,0,0.,24.0,0.,24.0
1979-07-24 01:18:43.410 ,5,1,0.,24.0,0.,24.0
1979-07-24 01:19:07.410 ,5,0,0.,24.0,0.,24.0
1979-07-24 01:19:31.410 ,4,1,0.,24.0,0.,24.0
1979-07-24 01:19:55.410 ,4,0,0.,24.0,0.,24.0
1979-07-24 01:20:19.410 ,3,1,0.,24.0,0.,24.0
1979-07-24 01:20:43.410 ,3,0,0.,24.0,0.,24.0
1979-07-24 01:21:07.410 ,2,1,0.,24.0,0.,24.0
1979-07-24 01:21:31.410 ,2,0,0.,24.0,0.,24.0
1979-07-24 01:21:55.410 ,1,1,0.,24.0,0.,24.0
1979-07-24 01:22:19.410 ,0,0,,0,,0
1979-07-24 01:22:26.010 ,0,0,0.,24.0,0.,24.0
1979-07-24 01:22:43.410 ,0,1,0.,24.0,0.,24.0
1979-07-24 01:23:07.410 ,0,0,0.,24.0,0.,24.0
1979-07-24 01:23:31.410 ,0,1,0.,24.0,0.,24.0
1979-07-24 01:23:55.410 ,0,0,0.,24.0,0.,24.0
1979-07-24 01:25:07.410 ,0,0,0.,24.0,0.,24.0
1979-07-24 01:25:31.410 ,0,0,0.,24.0,0.,24.0
1979-07-24 01:25:55.410 ,3,1,0.,24.0,0.,24.0
1979-07-24 01:26:19.410 ,3,0,0.,24.0,0.,24.0
1979-07-24 01:26:43.410 ,4,1,0.,24.0,0.,24.0
1979-07-24 01:27:07.410 ,4,0,0.,24.0,0.,24.0
1979-07-24 01:27:31.410 ,5,1,0.,24.0,0.,24.0
1979-07-24 01:27:55.410 ,5,0,0.,24.0,0.,24.0
1979-07-24 01:28:19.410 ,6,1,0.,24.0,0.,24.0
1979-07-24 01:28:43.410 ,6,0,0.,24.0,0.,24.0
1979-07-24 01:29:07.410 ,7,1,0.,24.0,0.,24.0
1979-07-24 01:29:31.410 ,7,0,0.,24.0,0.,24.0
1979-07-24 01:29:55.410 ,7,1,0.,24.0,0.,24.0
1979-07-24 01:30:19.410 ,7,0,0.,24.0,0.,24.0
1979-07-24 01:30:43.410 ,6,1,0.,24.0,0.,24.0
1979-07-24 01:31:07.410 ,6,0,0.,24.0,0.,24.0
1979-07-24 01:31:31.410 ,5,1,0.,24.0,0.,24.0
1979-07-24 01:31:55.410 ,5,0,0.,24.0,0.,24.0
1979-07-24 01:32:19.410 ,4,1,0.,24.0,0.,24.0
1979-07-24 01:32:43.410 ,4,0,0.,24.0,0.,24.0
1979-07-24 01:33:07.410 ,3,1,0.,24.0,0.,24.0
1979-07-24 01:33:31.410 ,3,0,0.,24.0,0.,24.0
1979-07-24 01:33:55.410 ,2,1,0.,24.0,0.,24.0
1979-07-24 01:34:19.410 ,2,0,0.,24.0,0.,24.0
1979-07-24 01:34:43.410 ,1,1,0.,24.0,0.,24.0
1979-07-24 01:35:07.410 ,1,0,0.,24.0,0.,24.0
1979-07-24 01:35:31.410 ,0,1,0.,24.0,0.,24.0
1979-07-24 01:35:55.410 ,0,0,0.,24.0,0.,24.0
1979-07-24 01:36:19.410 ,0,1,0.,24.0,0.,24.0
1979-07-24 01:36:43.410 ,0,0,0.,24.0,0.,24.0
1979-07-24 01:37:07.410 ,1,1,0.,24.0,0.,24.0
1979-07-24 01:37:31.410 ,1,0,0.,24.0,0.,24.0
1979-07-24 01:37:55.410 ,2,1,0.,24.0,0.,24.0
1979-07-24 01:38:19.410 ,2,0,0.,24.0,0.,24.0
1979-07-24 01:38:43.410 ,3,1,0.,24.0,0.,24.0
1979-07-24 01:39:07.410 ,3,0,0.,24.0,0.,24.0
1979-07-24 01:39:31.410 ,4,1,0.,24.0,0.,24.0
1979-07-24 01:39:55.410 ,4,0,0.,24.0,0.,24.0
1979-07-24 01:40:19.410 ,5,1,0.,24.0,0.,24.0
1979-07-24 01:40:43.410 ,5,0,0.,24.0,0.,24.0
1979-07-24 01:41:07.410 ,6,1,0.,24.0,0.,24.0
1979-07-24 01:41:31.410 ,6,0,0.,24.0,0.,24.0
1979-07-24 01:41:55.410 ,7,1,0.,24.0,0.,24.0
1979-07-24 01:42:19.410 ,7,0,0.,24.0,0.,24.0
1979-07-24 01:42:43.410 ,7,1,0.,24.0,0.,24.0
1979-07-24 01:43:07.410 ,7,0,0.,24.0,0.,24.0
1979-07-24 01:43:31.410 ,6,1,0.,24.0,0.,24.0
1979-07-24 01:43:55.410 ,6,0,0.,24.0,0.,24.0
1979-07-24 01:44:19.410 ,5,1,0.,24.0,0.,24.0
1979-07-24 01:44:43.410 ,5,0,0.,24.0,0.,24.0
1979-07-24 01:45:07.410 ,4,1,0.,24.0,0.,24.0
1979-07-24 01:45:31.410 ,4,0,0.,24.0,0.,24.0
1979-07-24 01:45:55.410 ,3,1,0.,24.0,0.,24.0
1979-07-24 01:46:19.410 ,3,0,0.,24.0,0.,24.0
1979-07-24 01:46:43.410 ,2,1,0.,24.0,0.,24.0
1979-07-24 01:47:07.410 ,2,0,0.,24.0,0.,24.0
1979-07-24 01:47:31.410 ,1,1,0.,24.0,0.,24.0
1979-07-24 01:47:55.410 ,1,0,0.,24.0,0.,24.0
1979-07-24 01:48:19.410 ,0,1,0.,24.0,0.,24.0
1979-07-24 01:48:43.410 ,0,0,0.,24.0,0.,24.0
1979-07-24 01:49:07.410 ,0,1,0.,24.0,0.,24.0
1979-07-24 01:49:31.410 ,0,0,0.,24.0,0.,24.0
1979-07-24 01:49:55.410 ,1,1,0.,24.0,0.,24.0
1979-07-24 01:50:19.410 ,1,0,0.,24.0,0.,24.0
1979-07-24 01:50:43.410 ,2,1,0.,24.0,0.,24.0
1979-07-24 01:51:07.410 ,2,0,0.,24.0,0.,24.0
1979-07-24 01:51:31.410 ,3,1,0.,24.0,0.,24.0
1979-07-24 01:51:55.410 ,3,0,0.,24.0,0.,24.0
1979-07-24 01:52:19.410 ,4,1,0.,24.0,0.,24.0
1979-07-24 01:52:43.410 ,4,0,0.,24.0,0.,24.0
1979-07-24 01:53:07.410 ,5,1,0.,24.0,0.,24.0
1979-07-24 01:53:31.410 ,5,0,0.,24.0,0.,24.0
1979-07-24 01:53:55.410 ,6,1,0.,24.0,0.,24.0
1979-07-24 01:54:19.410 ,6,0,0.,24.0,0.,24.0
1979-07-24 01:54:43.410 ,7,0,0.,24.0,0.,24.0
1979-07-24 01:55:07.410 ,7,0,0.,24.0,0.,24.0
1979-07-24 01:55:31.410 ,3,1,0.,24.0,0.,24.0
1979-07-24 01:55:55.410 ,0,1,0.,24.0,0.,24.0
1979-07-24 01:56:19.410 ,4,1,0.,24.0,0.,24.0
1979-07-24 01:56:43.410 ,7,1,0.,24.0,0.,24.0
1979-07-24 01:57:07.410 ,3,1,0.,24.0,0.,24.0
1979-07-24 01:57:31.410 ,0,1,0.,24.0,0.,24.0
1979-07-24 01:57:55.410 ,4,1,0.,24.0,0.,24.0
1979-07-24 01:58:19.410 ,7,1,0.,24.0,0.,24.0
1979-07-24 01:58:43.410 ,3,1,0.,24.0,0.,24.0
1979-07-24 01:59:07.410 ,0,1,0.,24.0,0.,24.0
1979-07-24 01:59:31.410 ,4,1,0.,24.0,0.,24.0
1979-07-24 01:59:55.410 ,7,1,0.,24.0,0.,24.0
1979-07-24 02:00:19.410 ,3,1,0.,24.0,0.,24.0
1979-07-24 02:00:43.410 ,0,1,0.,24.0,0.,24.0
1979-07-24 02:01:07.410 ,4,1,0.,24.0,0.,24.0
1979-07-24 02:01:31.410 ,7,1,0.,24.0,0.,24.0
1979-07-24 02:01:55.410 ,3,1,0.,24.0,0.,24.0
1979-07-24 02:02:19.410 ,0,1,0.,24.0,0.,24.0
1979-07-24 02:02:43.410 ,4,1,0.,24.0,0.,24.0
1979-07-24 02:03:07.410 ,7,1,0.,24.0,0.,24.0
1979-07-24 02:03:31.410 ,3,1,0.,24.0,0.,24.0
1979-07-24 02:03:55.410 ,0,1,0.,24.0,0.,24.0
1979-07-24 02:04:19.410 ,4,1,0.,24.0,0.,24.0
1979-07-24 02:04:43.410 ,7,1,0.,24.0,0.,24.0
1979-07-24 02:05:07.410 ,3,1,0.,24.0,0.,24.0
1979-07-24 02:05:31.410 ,0,1,0.,24.0,0.,24.0
1979-07-24 02:05:55.410 ,0,0,0.,24.0,0.,24.0
1979-07-24 02:06:19.410 ,0,0,0.,24.0,0.,24.0
1979-07-24 02:06:43.410 ,5,1,0.,24.0,0.,24.0
1979-07-24 02:07:07.410 ,5,0,0.,24.0,0.,24.0
1979-07-24 02:07:31.410 ,4,1,0.,24.0,0.,24.0
1979-07-24 02:07:55.410 ,4,0,0.,24.0,0.,24.0
1979-07-24 02:08:19.410 ,3,1,0.,24.0,0.,24.0
1979-07-24 02:08:43.410 ,3,0,0.,24.0,0.,24.0
1979-07-24 02:09:07.410 ,2,1,0.,24.0,0.,24.0
1979-07-24 02:09:31.410 ,2,0,0.,24.0,0.,24.0
1979-07-24 02:09:55.410 ,1,1,0.,24.0,0.,24.0
1979-07-24 02:10:19.410 ,1,0,0.,24.0,0.,24.0
1979-07-24 02:10:43.410 ,0,1,0.,24.0,0.,24.0
1979-07-24 02:11:07.410 ,0,0,0.,24.0,0.,24.0
1979-07-24 02:11:31.410 ,0,1,0.,24.0,0.,24.0
1979-07-24 02:11:55.410 ,0,0,0.,24.0,0.,24.0
1979-07-24 02:12:19.410 ,1,1,0.,24.0,0.,24.0
1979-07-24 02:12:43.410 ,1,0,0.,24.0,0.,24.0
1979-07-24 02:13:07.410 ,2,1,0.,24.0,0.,24.0
1979-07-24 02:13:31.410 ,2,0,0.,24.0,0.,24.0
1979-07-24 02:13:55.410 ,3,1,0.,24.0,0.,24.0
1979-07-24 02:14:19.410 ,3,0,0.,24.0,0.,24.0
1979-07-24 02:14:43.410 ,4,1,0.,24.0,0.,24.0
1979-07-24 02:15:07.410 ,4,0,0.,24.0,0.,24.0
1979-07-24 02:16:19.410 ,0,0,0.,24.0,0.,24.0
1979-07-24 02:16:43.410 ,0,0,0.,24.0,0.,24.0
1979-07-24 02:17:31.410 ,7,0,0.,24.0,0.,24.0
1979-07-24 02:17:55.410 ,7,1,0.,24.0,0.,24.0
1979-07-24 02:18:19.410 ,7,0,0.,24.0,0.,24.0
1979-07-24 02:18:43.410 ,6,1,0.,24.0,0.,24.0
1979-07-24 02:19:07.410 ,6,0,0.,24.0,0.,24.0
1979-07-24 02:19:31.410 ,5,1,0.,24.0,0.,24.0
1979-07-24 02:19:55.410 ,5,0,0.,24.0,0.,24.0
1979-07-24 02:20:19.410 ,4,1,0.,24.0,0.,24.0
1979-07-24 02:20:43.410 ,4,0,0.,24.0,0.,24.0
1979-07-24 02:21:07.410 ,3,1,0.,24.0,0.,24.0
1979-07-24 02:21:31.410 ,3,0,0.,24.0,0.,24.0
1979-07-24 02:21:55.410 ,2,1,0.,24.0,0.,24.0
1979-07-24 02:22:19.410 ,2,0,0.,24.0,0.,24.0
1979-07-24 02:22:43.410 ,1,1,0.,24.0,0.,24.0
1979-07-24 02:23:07.410 ,1,0,0.,24.0,0.,24.0
1979-07-24 02:23:31.410 ,0,1,0.,24.0,0.,24.0
1979-07-24 02:23:55.410 ,0,0,0.,24.0,0.,24.0
1979-07-24 02:24:19.410 ,0,1,0.,24.0,0.,24.0
1979-07-24 02:24:43.410 ,0,0,0.,24.0,0.,24.0
1979-07-24 02:25:07.410 ,1,1,0.,24.0,0.,24.0
1979-07-24 02:25:31.410 ,1,0,0.,24.0,0.,24.0
1979-07-24 02:25:55.410 ,2,1,0.,24.0,0.,24.0
1979-07-24 02:26:19.410 ,2,0,0.,24.0,0.,24.0
1979-07-24 02:26:43.410 ,3,1,0.,24.0,0.,24.0
1979-07-24 02:27:07.410 ,3,0,0.,24.0,0.,24.0
1979-07-24 02:27:31.410 ,4,1,0.,24.0,0.,24.0
1979-07-24 02:27:55.410 ,4,0,0.,24.0,0.,24.0
1979-07-24 02:28:19.410 ,5,1,0.,24.0,0.,24.0
1979-07-24 02:28:43.410 ,5,0,0.,24.0,0.,24.0
1979-07-24 02:29:07.410 ,6,1,0.,24.0,0.,24.0
1979-07-24 02:29:31.410 ,6,0,0.,24.0,0.,24.0
1979-07-24 02:29:55.410 ,7,1,0.,24.0,0.,24.0
1979-07-24 02:30:19.410 ,7,0,0.,24.0,0.,24.0
1979-07-24 02:30:43.410 ,7,1,0.,24.0,0.,24.0
1979-07-24 02:31:07.410 ,7,0,0.,24.0,0.,24.0
1979-07-24 02:31:31.410 ,6,1,0.,24.0,0.,24.0
1979-07-24 02:31:55.410 ,6,0,0.,24.0,0.,24.0
1979-07-24 02:32:19.410 ,5,1,0.,24.0,0.,24.0
1979-07-24 02:32:43.410 ,5,0,0.,24.0,0.,24.0
1979-07-24 02:33:07.410 ,4,1,0.,24.0,0.,24.0
1979-07-24 02:33:31.410 ,4,0,1.,24.0,0.,24.0
1979-07-24 02:33:55.410 ,3,1,0.,24.0,0.,24.0
1979-07-24 02:34:19.410 ,3,0,0.,24.0,0.,24.0
1979-07-24 02:34:43.410 ,2,1,0.,24.0,0.,24.0
1979-07-24 02:35:07.410 ,2,0,0.,24.0,0.,24.0
1979-07-24 02:35:31.410 ,1,1,0.,24.0,0.,24.0
1979-07-24 02:35:55.410 ,1,0,0.,24.0,0.,24.0
1979-07-24 02:36:19.410 ,0,1,0.,24.0,0.,24.0
1979-07-24 02:36:43.410 ,0,0,0.,24.0,0.,24.0
1979-07-24 02:37:07.410 ,0,1,0.,24.0,0.,24.0
1979-07-24 02:37:31.410 ,0,0,0.,24.0,0.,24.0
1979-07-24 02:37:55.410 ,1,1,0.,24.0,0.,24.0
1979-07-24 02:38:19.410 ,1,0,0.,24.0,0.,24.0
1979-07-24 02:38:43.410 ,2,1,0.,24.0,0.,24.0
1979-07-24 02:39:07.410 ,2,0,0.,24.0,0.,24.0
1979-07-24 02:39:31.410 ,3,1,0.,24.0,0.,24.0
1979-07-24 02:39:55.410 ,3,0,0.,24.0,0.,24.0
1979-07-24 02:40:19.410 ,4,1,0.,24.0,0.,24.0
1979-07-24 02:40:43.410 ,4,0,0.,24.0,0.,24.0
1979-07-24 02:41:07.410 ,5,1,0.,24.0,0.,24.0
1979-07-24 02:41:31.410 ,5,0,0.,24.0,0.,24.0
1979-07-24 02:41:55.410 ,6,1,0.,24.0,0.,24.0
1979-07-24 02:42:19.410 ,6,0,0.,24.0,0.,24.0
1979-07-24 02:42:43.410 ,7,0,0.,24.0,0.,24.0
1979-07-24 02:43:07.410 ,7,0,0.,24.0,0.,24.0
1979-07-24 02:43:31.410 ,3,1,0.,24.0,0.,24.0
1979-07-24 02:43:55.410 ,0,1,0.,24.0,0.,24.0
1979-07-24 02:44:19.410 ,4,1,0.,24.0,0.,24.0
1979-07-24 02:44:43.410 ,7,1,0.,24.0,0.,24.0
1979-07-24 02:45:07.410 ,3,1,0.,24.0,0.,24.0
1979-07-24 02:45:31.410 ,0,1,0.,24.0,0.,24.0
1979-07-24 02:45:55.410 ,4,1,0.,24.0,0.,24.0
1979-07-24 02:46:19.410 ,7,1,0.,24.0,0.,24.0
1979-07-24 02:46:43.410 ,3,1,0.,24.0,0.,24.0
1979-07-24 02:47:07.410 ,0,1,0.,24.0,0.,24.0
1979-07-24 02:47:31.410 ,4,1,0.,24.0,0.,24.0
1979-07-24 02:47:55.410 ,7,1,0.,24.0,0.,24.0
1979-07-24 02:48:19.410 ,3,1,0.,24.0,0.,24.0
1979-07-24 02:48:43.410 ,0,1,0.,24.0,0.,24.0
1979-07-24 02:49:07.410 ,4,1,0.,24.0,0.,24.0
1979-07-24 02:49:31.410 ,7,1,0.,24.0,0.,24.0
1979-07-24 02:49:55.410 ,3,1,0.,24.0,0.,24.0
1979-07-24 02:50:19.410 ,0,1,0.,24.0,0.,24.0
1979-07-24 02:50:43.410 ,4,1,0.,24.0,0.,24.0
1979-07-24 02:51:07.410 ,7,1,0.,24.0,0.,24.0
1979-07-24 02:51:31.410 ,3,1,0.,24.0,0.,24.0
1979-07-24 02:51:55.410 ,0,1,0.,24.0,0.,24.0
1979-07-24 02:52:19.410 ,4,1,0.,24.0,0.,24.0
1979-07-24 02:52:43.410 ,7,1,0.,24.0,0.,24.0
1979-07-24 02:53:07.410 ,3,1,0.,24.0,0.,24.0
1979-07-24 02:53:31.410 ,0,1,0.,24.0,0.,24.0
1979-07-24 02:53:55.410 ,0,0,0.,24.0,0.,24.0
1979-07-24 02:54:19.410 ,0,0,0.,24.0,0.,24.0
1979-07-24 02:54:43.410 ,5,1,0.,24.0,0.,24.0
1979-07-24 02:55:07.410 ,5,0,0.,24.0,0.,24.0
1979-07-24 02:55:31.410 ,4,1,0.,24.0,0.,24.0
1979-07-24 02:55:55.410 ,4,0,0.,24.0,0.,24.0
1979-07-24 02:56:19.410 ,3,1,0.,24.0,0.,24.0
1979-07-24 02:56:43.410 ,3,0,0.,24.0,0.,24.0
1979-07-24 02:57:07.410 ,2,1,0.,24.0,0.,24.0
1979-07-24 02:57:31.410 ,2,0,0.,24.0,0.,24.0
1979-07-24 02:57:55.410 ,1,1,0.,24.0,0.,24.0
1979-07-24 02:58:19.410 ,1,0,0.,24.0,0.,24.0
1979-07-24 02:58:43.410 ,0,1,0.,24.0,0.,24.0
1979-07-24 02:59:07.410 ,0,0,0.,24.0,0.,24.0
1979-07-24 02:59:31.410 ,0,1,0.,24.0,0.,24.0
1979-07-24 02:59:55.410 ,0,0,0.,24.0,0.,24.0
1979-07-24 03:00:19.410 ,1,1,0.,24.0,0.,24.0
